Wind_Speed
17 18 19 19 19 20 21 22 23 23 24 24 24 25 25 25 25 24 24 24 25 25 25 25 25 25 26 26 26 26 26 26 26 27 27 28 27 28 28 29 29 29 29 28 28 28 29 29 29 30 30 30 30 31 32 33 35 35 37 38 39 41 44 46 47 46 44 42 41 42 43 42 42 43 43 43 45 49 50 51 53 53 53 53 55 55 53 50
18 19 20 20 20 20 21 23 24 25 26 26 26 26 26 26 26 26 26 25 25 25 26 26 27 27 28 28 28 28 28 28 28 28 29 29 29 29 30 30 30 30 30 31 31 31 31 31 32 32 32 33 33 33 33 33 34 35 36 37 40 43 46 49 49 46 44 44 44 44 44 44 44 44 44 45 47 49 52 54 55 56 57 55 55 55 52 49
20 21 21 21 22 21 22 24 26 28 28 28 28 27 27 27 28 28 28 27 27 27 27 27 28 28 29 30 30 30 30 30 30 30 30 30 31 31 31 32 32 32 32 33 33 33 33 33 34 34 35 35 35 35 35 35 36 36 37 38 41 44 46 48 48 45 44 45 45 45 45 45 47 47 47 47 49 51 53 56 56 58 59 56 54 54 53 50
22 23 23 23 23 22 24 26 28 30 31 31 30 28 27 28 28 29 29 29 29 29 29 30 30 30 31 32 32 32 32 31 31 31 31 32 32 33 33 33 33 33 34 35 35 35 35 36 36 37 37 37 37 38 37 37 37 37 38 40 43 45 47 49 47 45 45 46 46 45 45 46 48 49 49 50 52 54 55 58 57 58 59 56 54 54 54 53
22 23 23 24 23 23 25 28 30 31 33 32 29 27 26 26 27 28 29 30 31 31 31 32 32 33 33 34 35 35 33 33 34 33 34 34 34 34 34 34 35 35 36 36 37 37 37 38 39 39 40 40 40 40 39 38 38 38 40 42 44 46 48 49 48 47 45 44 45 45 46 48 50 51 52 53 54 56 58 59 59 58 58 57 56 55 55 55
23 23 23 23 23 24 26 29 31 33 33 30 26 25 25 26 26 27 28 29 30 31 32 33 33 34 35 36 37 36 35 35 36 36 36 36 35 36 35 36 36 36 37 37 38 39 39 40 41 42 43 43 42 41 40 39 39 39 41 42 44 47 49 47 45 44 43 43 45 46 49 51 52 53 54 55 56 57 59 60 60 59 59 57 57 57 56 56
24 24 24 23 24 25 28 31 32 33 32 27 25 26 27 27 27 28 28 29 30 31 32 33 33 34 35 36 37 37 37 37 37 37 37 37 36 36 36 36 36 37 38 38 39 40 41 41 43 45 46 45 43 42 42 40 40 40 40 41 44 47 47 44 41 41 42 44 47 49 52 54 54 55 55 55 56 58 60 61 61 61 61 59 58 58 58 57
25 25 24 24 24 26 29 31 32 33 29 26 27 29 28 27 26 26 27 27 29 30 31 32 33 34 35 36 37 38 38 38 38 38 38 38 38 38 37 37 38 39 40 41 42 42 43 44 46 47 46 45 44 43 43 42 40 40 40 41 44 47 46 43 42 42 43 45 46 49 52 53 54 54 55 56 57 59 61 62 62 62 62 61 60 60 59 57
26 25 24 24 25 27 30 31 32 32 28 27 29 28 26 24 24 24 24 24 24 24 25 27 28 30 31 33 34 35 35 35 37 38 39 39 39 40 40 40 40 41 42 43 44 45 45 46 47 47 45 44 44 44 43 43 41 40 40 41 44 48 47 44 43 43 44 45 45 46 50 53 53 52 55 57 58 60 62 62 62 63 64 62 62 62 61 59
25 24 24 25 26 28 30 31 32 30 27 28 28 26 23 23 23 23 23 22 22 22 21 21 22 23 24 26 28 29 30 30 32 34 36 37 37 38 38 39 40 41 42 43 44 45 44 44 45 45 43 43 45 44 43 43 42 41 42 42 45 47 46 44 44 44 46 47 46 47 49 52 53 52 54 57 59 60 61 62 63 64 65 64 64 65 64 63
24 24 25 27 28 30 31 32 32 30 27 28 27 24 23 23 24 23 22 22 22 22 22 21 22 22 22 24 26 27 28 29 29 30 32 34 35 36 37 38 39 40 42 42 42 43 42 42 44 44 43 43 44 44 44 44 43 43 44 44 45 45 45 45 46 47 47 49 50 49 49 51 52 53 55 57 57 57 59 62 65 66 67 68 67 68 68 66
25 26 28 28 29 30 32 32 32 29 27 28 27 24 24 24 24 24 23 23 23 23 23 24 24 25 25 26 28 30 31 32 33 34 34 35 36 38 39 39 40 41 43 43 43 43 43 43 44 45 45 44 44 46 46 45 45 46 45 44 44 44 45 47 48 49 49 51 52 52 52 52 52 53 55 56 56 57 59 62 65 67 68 70 70 71 71 68
26 29 30 30 30 31 32 32 32 29 27 27 27 25 25 26 26 26 25 25 25 25 26 27 28 29 29 30 31 33 35 36 38 40 41 41 41 41 42 42 42 43 44 44 45 44 44 45 45 46 47 46 46 48 47 46 46 47 46 45 45 45 47 49 49 50 51 52 53 54 54 53 53 54 56 57 58 61 63 63 65 66 68 70 71 72 71 69
28 30 31 31 31 32 33 32 31 29 27 27 28 27 27 27 27 27 27 27 27 28 29 31 32 33 33 34 35 37 38 39 41 43 45 47 47 47 47 46 46 45 45 45 45 46 46 46 46 47 47 47 47 48 47 47 47 47 47 46 46 47 49 49 50 50 52 53 54 54 54 54 54 55 57 58 60 63 65 66 66 65 66 67 67 68 68 68
29 30 31 32 33 33 33 33 31 29 27 27 28 28 28 28 28 29 29 29 29 31 32 34 35 36 36 38 39 41 41 43 45 48 49 52 52 52 51 50 49 47 46 46 46 46 46 46 47 47 47 47 47 47 47 47 47 47 47 47 47 48 49 49 49 50 52 54 54 54 54 54 55 56 58 59 61 63 64 65 66 64 63 62 61 61 63 66
29 31 32 32 33 34 34 33 31 30 28 28 29 28 28 28 29 30 30 30 31 32 34 35 37 39 40 41 43 45 47 48 50 53 54 56 56 55 53 51 50 48 47 46 46 46 46 46 47 47 47 46 46 46 46 47 47 48 48 47 47 48 48 48 48 49 51 54 54 54 53 52 53 56 58 60 60 61 63 63 64 64 62 60 60 59 60 63
30 31 32 33 34 34 34 32 31 30 28 28 29 29 29 29 29 30 30 31 32 33 34 36 38 40 42 44 47 49 51 54 56 58 58 57 57 55 53 50 49 48 47 46 46 46 46 46 45 45 45 45 44 45 45 46 47 47 47 47 46 46 47 47 46 48 52 54 54 53 51 50 51 54 56 57 57 58 60 61 62 63 63 62 62 61 61 62
30 32 33 34 34 34 33 32 31 30 28 28 30 30 30 30 31 31 31 32 33 34 36 38 40 43 44 47 50 52 55 59 60 59 56 54 53 51 50 48 47 46 45 44 44 44 44 44 44 44 43 43 43 44 44 45 45 46 46 46 46 46 45 45 45 49 52 51 51 49 47 47 49 52 53 52 52 54 56 59 61 62 62 62 63 62 62 63
30 32 34 34 34 34 33 32 31 30 29 28 30 31 31 31 31 31 32 33 34 35 37 40 42 45 46 48 52 56 60 62 59 54 50 48 46 45 44 43 42 42 41 42 42 42 42 42 42 42 41 41 42 43 43 43 43 45 46 45 45 44 43 44 45 48 48 46 47 47 46 46 48 49 49 49 50 51 53 56 58 59 59 60 61 62 63 64
30 32 34 35 34 34 33 33 31 30 29 29 30 31 31 31 32 32 33 34 35 37 39 42 44 47 49 51 55 59 62 60 53 47 43 40 39 38 38 37 37 37 38 38 39 39 39 39 39 39 40 40 40 41 41 41 42 43 44 44 43 42 42 42 42 43 43 43 44 44 44 44 44 43 44 45 46 47 49 52 54 56 57 58 59 62 63 65
30 32 34 35 35 34 33 33 32 31 30 29 30 31 32 32 33 34 35 36 37 39 41 44 46 48 51 54 56 60 60 53 45 40 36 33 32 31 32 32 33 33 34 35 36 36 36 36 37 37 38 39 39 40 40 40 40 40 40 41 40 40 40 40 39 39 38 37 37 38 38 37 36 36 36 37 38 40 41 44 48 50 52 55 57 59 60 61
30 32 34 35 35 34 34 34 33 32 31 30 30 31 33 34 35 36 37 39 40 42 44 46 48 49 52 54 58 60 55 45 37 33 30 27 26 26 26 27 28 28 29 31 32 33 33 33 34 34 35 37 38 38 37 37 37 36 36 37 37 38 38 37 35 33 31 29 29 31 32 30 30 29 28 30 31 32 34 37 40 42 45 48 52 55 56 56
29 32 34 35 35 35 34 34 34 33 32 31 31 32 33 35 36 37 39 41 43 44 46 48 49 50 53 55 59 58 50 40 32 27 24 22 21 20 21 22 23 24 26 28 29 30 30 31 31 32 33 35 35 34 34 34 33 33 34 34 35 35 33 30 28 26 24 24 24 26 26 25 25 22 20 23 24 24 26 29 32 35 38 41 45 49 51 53
30 32 34 35 35 35 34 33 34 34 33 32 31 32 33 35 37 39 40 42 44 45 47 48 49 51 53 56 58 55 45 36 30 24 20 17 16 15 16 18 19 20 22 24 25 26 26 27 28 28 30 31 32 31 31 31 31 31 31 31 30 29 26 23 22 21 21 20 21 22 20 20 19 17 17 19 19 19 20 22 24 28 31 34 38 42 45 49
30 32 34 35 36 36 34 33 34 34 34 33 32 32 34 35 38 39 41 43 45 46 47 48 49 51 53 55 56 52 42 33 27 23 19 15 13 12 13 14 16 17 19 21 22 22 23 24 24 25 27 28 28 28 28 28 28 28 28 26 24 22 20 19 19 18 17 16 17 16 14 14 14 14 15 15 15 16 16 16 17 19 23 27 30 35 40 44
31 33 35 35 36 36 35 34 33 34 34 34 33 33 34 36 38 40 42 43 44 45 46 47 49 50 52 54 55 51 41 33 27 23 19 16 13 12 11 12 13 14 16 17 18 19 20 20 21 22 24 25 25 26 26 25 24 24 24 22 20 19 18 17 17 15 14 14 13 12 11 12 13 11 10 11 11 11 12 14 14 15 18 21 24 29 33 38
30 33 35 35 35 36 36 34 33 34 34 34 34 34 35 36 38 40 42 43 44 45 46 47 48 50 51 52 53 49 42 34 28 24 21 19 16 14 13 13 13 14 15 16 17 17 18 18 19 20 21 22 22 23 23 22 22 22 22 20 18 17 16 15 14 13 13 13 12 11 11 12 13 9 7 8 9 9 11 13 13 13 14 16 19 23 27 31
30 33 35 36 35 35 36 35 34 34 34 34 35 35 36 37 39 41 42 43 44 45 45 46 47 49 50 51 51 49 44 37 31 27 24 21 19 17 15 14 15 15 16 16 16 16 16 16 16 17 18 19 20 21 21 20 19 19 19 18 16 15 15 15 13 12 12 13 13 13 12 12 12 10 8 8 8 9 10 10 10 10 10 13 15 18 21 25
30 33 34 35 35 36 36 35 34 34 35 35 35 36 37 38 39 41 42 42 43 44 44 44 46 47 48 49 50 50 45 39 34 30 27 24 22 19 18 17 17 16 17 17 16 15 14 13 13 15 16 17 19 19 19 17 14 14 16 17 15 15 15 14 13 12 12 13 14 14 13 11 11 10 9 9 8 9 9 8 9 10 10 10 12 13 16 19
31 33 33 33 35 36 36 34 33 34 35 35 36 37 38 39 40 41 41 42 43 43 42 43 44 45 46 47 49 49 47 41 36 32 29 26 24 22 21 19 18 17 17 16 16 14 12 12 12 13 14 16 17 18 17 13 10 12 15 16 15 15 16 16 15 13 12 13 14 14 13 11 10 11 10 9 9 10 10 9 10 11 11 11 11 11 13 15
31 32 32 32 34 36 35 34 33 33 35 36 37 38 39 40 41 41 41 41 41 41 40 41 42 43 43 45 47 49 48 44 38 34 30 28 26 24 22 21 19 18 17 16 15 14 12 11 12 12 13 14 15 16 15 12 9 11 14 14 14 15 17 17 16 15 15 16 15 14 13 12 11 12 11 10 10 11 11 11 11 12 12 12 12 12 12 12
30 31 31 32 33 34 34 33 33 33 35 36 37 38 39 40 40 40 40 40 40 38 38 38 40 40 41 43 45 48 48 46 40 36 32 29 27 25 23 21 20 19 18 16 15 13 12 11 12 12 13 13 13 14 14 12 10 11 13 14 13 15 17 17 16 15 16 18 16 15 14 13 13 13 12 12 12 12 14 13 13 13 12 12 12 12 12 13
30 30 30 32 32 32 32 32 32 32 34 35 37 38 38 39 39 39 39 39 38 37 36 37 37 38 39 41 44 46 48 47 43 38 34 31 28 26 24 22 21 19 18 17 15 14 13 11 11 13 14 14 14 14 14 13 10 11 14 15 14 15 16 17 15 14 15 17 17 15 15 15 14 13 14 15 14 16 17 16 15 14 14 13 13 12 12 12
29 30 30 30 31 31 32 32 31 31 33 34 36 37 36 36 37 37 37 37 36 35 35 35 36 37 38 39 42 44 47 48 46 41 36 33 30 28 26 24 22 21 20 19 17 16 15 13 13 13 14 15 15 15 14 13 11 12 13 14 15 17 17 16 16 15 15 17 17 16 15 16 15 15 17 18 18 19 20 19 18 17 16 15 14 13 13 12
28 30 29 28 29 31 33 32 31 30 32 34 35 35 34 34 34 35 35 35 35 34 34 34 34 35 36 37 40 42 45 48 48 45 40 35 32 29 27 25 24 23 22 21 20 19 18 17 16 16 15 15 16 16 15 14 12 12 13 13 15 17 17 16 17 17 16 17 18 16 15 15 15 16 19 21 21 21 22 22 20 20 18 16 15 15 15 14
27 27 27 28 29 31 32 31 30 29 31 33 34 33 32 31 31 32 34 34 33 33 32 32 33 34 35 36 38 40 43 46 48 48 44 39 35 32 29 27 25 24 23 23 21 20 20 20 19 18 17 17 16 16 16 15 14 13 12 12 13 15 17 17 17 18 17 18 19 18 16 15 15 17 20 23 24 23 23 23 23 22 20 18 17 17 17 16
26 24 26 29 31 31 30 30 30 29 30 32 32 31 30 29 29 30 32 33 33 33 32 32 32 33 34 35 37 38 40 43 46 47 47 44 40 36 33 30 27 26 25 24 23 22 21 20 20 19 19 17 16 16 15 15 14 14 14 14 14 14 16 17 18 19 20 20 21 20 17 17 17 18 21 24 27 26 24 23 24 24 22 19 18 18 18 17
26 25 27 30 31 31 29 30 31 29 29 31 32 30 29 27 27 27 31 33 33 33 32 32 32 33 33 34 35 37 39 41 43 45 47 47 45 42 38 34 31 29 27 26 24 23 22 21 20 19 19 18 17 16 16 15 14 15 15 15 16 16 16 18 20 21 22 22 23 23 20 19 19 20 22 24 28 28 26 25 25 25 24 21 20 19 19 18
26 26 27 29 29 29 29 30 31 29 28 30 31 30 27 26 26 25 28 33 34 34 33 32 32 32 33 33 34 36 37 39 41 43 45 47 47 46 44 40 36 33 31 28 27 25 24 23 22 21 20 19 18 17 16 15 14 15 15 15 16 18 18 19 20 22 23 22 22 24 24 22 21 22 23 25 29 29 26 26 27 27 25 23 22 21 20 19
28 27 28 29 28 28 29 29 29 27 27 29 29 28 25 25 26 23 25 31 34 34 35 34 33 32 33 33 34 34 36 37 39 41 43 45 47 48 48 45 42 38 35 32 30 28 26 25 24 22 22 21 20 18 17 16 14 14 14 15 16 17 18 19 20 22 23 23 22 22 23 24 24 24 25 28 30 28 26 28 29 28 27 25 23 23 22 21
29 28 28 29 27 27 28 29 28 26 26 28 28 26 23 23 24 22 23 28 31 34 36 36 35 33 33 33 33 33 34 35 36 38 41 43 45 47 48 48 47 44 40 37 34 31 29 27 26 25 24 23 22 20 19 17 16 15 15 16 16 17 17 18 19 20 22 23 23 21 20 22 23 25 28 30 29 27 28 29 29 28 26 25 24 25 25 24
29 30 30 29 27 26 28 30 27 24 26 27 26 24 22 22 23 20 21 25 28 31 35 36 36 35 34 33 33 33 33 34 35 36 38 40 42 44 46 47 49 48 45 42 38 35 33 31 29 28 27 26 25 24 23 21 20 19 19 19 19 19 19 19 20 20 20 21 22 20 20 21 21 23 27 30 29 28 28 29 30 29 26 24 25 26 27 27
29 30 30 29 27 26 27 29 27 24 26 27 24 22 22 22 22 20 20 23 26 28 31 34 36 37 36 35 34 34 33 33 34 35 36 38 40 41 43 45 46 47 47 46 43 41 38 35 33 31 30 29 29 28 27 26 25 24 23 22 22 22 22 22 22 21 20 19 19 19 19 19 19 20 24 27 29 28 28 29 31 30 27 25 26 28 29 29
30 31 31 29 28 26 25 27 26 24 25 25 22 21 21 21 22 20 19 23 26 27 29 31 33 36 38 37 35 34 34 33 33 34 35 36 37 39 41 42 43 44 45 45 45 44 43 40 38 36 34 33 32 31 30 29 28 27 25 24 24 23 23 22 22 21 20 18 16 16 15 15 17 19 20 22 24 26 28 30 31 30 28 27 28 29 29 29
33 32 31 29 27 26 25 25 25 24 24 24 21 19 19 20 20 19 19 21 24 26 28 30 31 33 36 37 36 34 33 33 33 33 33 34 35 36 38 39 41 41 42 43 43 44 44 43 42 40 39 37 36 35 34 33 32 30 29 28 28 27 26 24 22 21 19 17 15 13 12 12 15 17 16 16 18 21 25 29 30 29 29 28 28 29 30 29
35 34 34 30 27 26 25 25 26 25 24 22 21 19 18 18 18 18 18 19 22 25 27 29 31 32 33 35 36 35 33 33 32 32 32 32 33 34 35 37 38 39 39 40 40 41 42 42 42 42 41 40 39 38 38 37 36 36 34 33 33 32 31 29 25 22 20 18 16 13 10 9 11 12 13 13 14 15 18 23 27 28 28 27 26 27 29 29
38 37 35 32 29 26 23 24 26 26 24 23 22 20 18 17 16 17 18 18 20 24 26 27 29 32 32 32 34 35 34 32 32 32 32 32 32 32 33 34 35 36 37 38 38 39 39 40 40 40 40 40 40 40 40 40 39 39 39 38 37 35 34 32 30 26 22 19 17 14 11 8 7 7 9 11 12 12 14 18 22 24 25 25 24 25 27 28
39 37 35 32 29 26 23 23 26 26 24 23 23 21 19 17 16 17 18 18 19 22 25 27 28 30 31 31 33 34 34 33 32 31 31 31 31 31 31 32 33 34 34 35 36 37 37 37 38 38 38 39 39 39 39 39 39 40 40 40 39 38 37 35 33 31 27 24 20 17 14 11 8 6 7 9 10 11 13 15 17 19 21 21 22 22 24 25
36 36 34 32 29 27 24 24 26 27 25 25 25 23 21 18 16 17 18 18 18 21 23 26 27 30 31 32 32 33 33 34 33 32 31 30 30 30 30 30 30 31 32 33 34 35 35 36 36 36 37 37 37 37 37 37 37 38 39 39 40 40 39 38 37 35 32 29 26 23 19 16 14 12 12 12 12 13 14 15 15 16 17 18 19 21 21 22
35 34 35 34 31 28 25 25 27 27 26 26 26 26 24 20 17 19 19 18 19 20 22 24 26 29 31 32 33 33 33 33 34 34 33 31 29 29 30 29 29 29 30 31 32 33 33 34 34 34 35 35 35 35 35 35 35 36 37 38 38 39 40 40 39 38 36 34 31 28 25 22 21 19 17 15 13 14 16 16 15 14 13 15 17 19 20 21
35 35 35 35 34 30 26 26 28 28 28 27 27 28 28 23 20 19 20 19 20 21 22 23 24 27 30 31 32 33 33 33 34 35 35 33 31 29 28 29 28 28 28 29 30 31 31 32 32 33 33 33 33 34 34 34 34 34 35 35 36 36 37 38 39 39 39 38 36 34 32 29 27 25 22 20 16 15 17 17 16 15 13 11 12 14 17 19
35 35 36 35 35 33 29 27 29 31 30 28 27 28 28 27 23 20 20 21 21 21 22 23 23 26 28 29 30 31 33 34 36 37 36 36 35 33 29 28 28 27 27 27 27 28 29 30 31 31 32 32 32 32 32 33 33 33 33 33 34 34 35 35 36 37 37 37 37 37 36 34 33 30 28 26 23 20 18 17 17 16 15 14 12 11 12 15
Wind_Direction
321 327 331 332 332 333 335 335 334 332 328 323 318 313 308 303 299 295 292 289 287 286 287 288 288 289 289 288 287 287 287 288 287 287 287 287 289 289 290 290 290 290 289 289 287 286 284 283 283 282 280 278 276 274 272 269 267 265 262 260 259 259 258 258 257 256 256 256 255 256 258 257 255 252 251 250 250 250 250 249 247 243 240 239 241 240 237 235
315 321 326 328 328 329 330 332 332 331 328 323 318 313 309 305 301 298 295 292 289 287 287 287 288 289 289 289 288 288 288 288 287 286 286 287 288 288 288 289 289 289 289 288 287 286 285 286 285 284 284 283 281 279 278 276 273 270 267 264 262 260 259 259 259 259 259 259 258 258 259 260 257 254 252 250 250 250 250 248 247 245 242 239 241 243 242 239
312 315 319 323 324 323 325 328 329 329 327 324 319 313 307 304 301 299 297 294 292 289 288 287 287 288 288 288 288 288 289 288 288 287 287 288 287 287 287 288 288 288 288 287 286 286 286 286 285 286 286 286 285 282 280 279 277 275 272 270 267 265 263 263 262 261 260 259 258 257 258 260 258 255 252 250 250 250 250 249 247 247 245 241 240 243 243 242
312 313 315 318 320 320 322 326 327 327 326 323 319 313 307 302 300 298 297 296 294 292 290 288 288 287 287 287 287 287 288 288 288 288 288 287 287 287 287 287 288 288 288 287 286 286 286 285 286 287 287 287 284 280 279 278 278 278 276 274 271 269 267 266 264 262 259 257 257 257 257 257 257 256 252 250 250 249 249 249 248 248 248 243 240 240 241 241
316 315 315 317 318 318 321 324 325 325 325 323 320 317 312 307 303 300 298 296 295 293 292 291 289 289 288 287 287 288 289 289 288 288 288 287 287 287 287 287 287 287 287 287 286 285 284 284 287 288 288 285 281 279 279 278 279 279 277 275 273 271 268 265 263 262 260 259 259 258 256 255 254 255 253 250 250 250 250 250 249 249 249 247 243 240 238 239
321 319 318 317 317 319 322 324 325 326 326 324 323 323 320 315 310 306 302 299 296 294 293 291 290 290 289 289 289 290 291 290 289 289 289 289 289 288 287 286 286 286 286 285 284 282 282 284 287 287 285 283 281 280 279 278 278 278 277 276 273 270 267 266 266 265 264 262 260 258 255 253 252 253 253 252 252 252 252 252 250 249 249 248 246 242 238 236
324 322 320 318 318 320 323 324 325 327 327 325 325 325 322 318 315 311 307 303 299 296 293 291 290 290 289 289 290 291 291 290 289 290 289 288 288 287 287 287 286 286 285 284 282 282 283 284 284 283 283 283 282 280 279 278 277 277 276 275 272 270 269 270 269 266 262 257 255 253 251 251 250 251 252 253 253 253 254 253 252 250 248 246 246 245 241 237
324 323 321 320 320 322 323 325 327 329 328 326 327 326 324 321 320 318 315 310 305 300 296 292 291 290 289 289 290 290 289 289 290 289 288 287 287 286 285 285 285 284 283 283 282 283 283 282 281 281 282 282 281 280 279 278 277 276 275 273 272 270 270 269 267 265 261 258 255 254 254 253 252 252 252 253 253 254 254 254 254 252 250 247 246 245 243 240
324 325 323 323 323 323 324 326 329 330 329 329 330 328 327 327 327 327 325 323 320 315 309 303 298 296 294 294 293 292 293 292 292 290 289 288 286 285 284 284 283 282 282 282 282 282 281 280 280 280 281 281 280 279 279 278 278 276 274 271 269 269 269 269 268 267 265 263 260 259 258 257 254 252 252 252 251 252 252 254 254 254 252 249 247 246 244 241
326 327 326 325 325 325 325 328 331 332 330 331 332 330 331 333 333 333 333 333 334 333 330 325 319 314 310 306 304 303 302 299 295 293 292 291 289 288 287 286 285 284 283 283 282 280 279 280 279 279 280 279 279 279 279 278 277 274 272 269 268 270 272 272 271 268 266 264 260 256 255 257 256 253 251 251 250 251 252 253 254 254 254 251 248 246 243 240
329 329 328 327 326 326 328 330 332 333 332 333 332 331 332 335 335 335 335 336 336 336 335 333 329 326 323 319 315 311 308 305 302 299 297 295 294 292 290 289 287 286 284 283 281 280 280 280 279 280 279 278 279 280 278 277 276 274 273 272 271 272 273 272 270 268 267 265 262 258 255 255 256 255 254 252 252 252 252 253 252 252 252 252 249 247 242 239
331 330 328 328 328 328 330 331 333 334 333 334 333 332 333 335 336 334 335 335 334 334 332 330 327 326 324 320 316 312 310 310 307 305 302 299 297 294 292 290 288 285 283 282 281 281 281 280 280 280 279 280 280 278 277 277 278 277 275 274 273 272 271 270 269 268 266 264 262 260 258 255 255 255 256 256 255 253 250 249 250 249 249 249 249 248 245 239
332 330 329 329 329 330 331 332 334 334 333 334 334 333 334 334 335 333 332 333 332 332 330 329 326 325 323 319 315 312 312 311 308 306 304 301 299 295 293 291 288 285 283 282 281 281 280 280 279 279 280 280 279 278 279 279 278 277 276 275 274 272 270 269 267 266 265 263 261 260 259 258 256 254 254 254 254 253 251 249 248 247 246 246 247 248 248 245
332 331 330 331 331 332 333 333 334 334 333 334 335 335 334 334 334 333 332 331 330 330 329 328 326 324 322 319 316 313 312 309 306 304 302 301 298 295 293 291 288 286 284 282 281 280 279 278 278 278 279 279 279 279 279 279 278 277 276 275 273 271 269 268 267 266 265 264 262 261 260 258 257 256 254 253 252 253 253 252 251 249 247 246 247 248 250 251
332 332 332 333 333 334 334 333 334 334 333 334 335 336 335 334 334 333 332 330 329 329 328 328 325 323 323 320 316 314 312 309 307 304 301 298 295 292 290 289 287 285 283 281 279 278 278 277 277 277 277 277 278 278 278 278 277 276 275 274 272 270 269 268 268 267 265 264 263 261 259 258 257 256 255 254 253 253 253 254 254 253 251 250 249 249 250 251
332 333 334 335 335 335 335 334 334 334 333 334 334 336 337 336 334 333 332 330 329 329 328 328 326 325 325 321 317 315 313 311 308 304 300 295 291 289 287 285 283 281 279 278 277 276 276 276 276 276 276 276 276 277 277 277 276 275 274 273 272 272 271 269 269 268 267 265 263 261 260 258 257 257 256 255 254 254 255 255 256 256 255 253 250 248 248 248
332 333 335 336 337 336 335 334 334 334 333 334 334 335 336 336 335 334 333 331 330 330 330 330 328 327 326 322 318 317 314 312 309 304 298 292 288 285 283 281 279 277 276 275 274 274 274 275 275 275 275 276 276 276 276 275 276 275 274 273 272 271 270 270 270 268 266 265 265 264 263 261 260 258 257 255 254 254 254 254 254 254 253 251 248 245 244 244
331 333 335 337 338 337 336 334 334 334 333 333 334 334 336 336 335 335 333 332 331 331 331 330 329 328 326 322 319 318 316 313 309 303 296 290 286 282 280 277 275 273 272 272 272 272 272 273 273 273 274 275 275 275 275 275 275 275 274 273 272 271 271 271 268 266 265 266 266 267 266 263 261 260 258 257 255 253 252 251 251 250 249 248 247 244 242 241
330 332 335 338 339 338 336 335 334 334 333 332 333 334 336 336 335 334 334 332 331 330 331 330 330 328 326 324 322 320 318 314 310 303 296 289 284 280 277 274 272 270 269 269 269 270 270 271 272 273 274 274 274 274 274 274 274 274 274 273 272 272 271 268 266 265 267 268 268 268 267 264 262 262 262 260 257 255 252 251 250 249 248 246 245 243 241 239
329 332 334 337 339 338 337 336 334 334 332 331 332 334 335 335 334 334 333 332 331 331 332 332 331 330 329 327 325 322 320 317 311 304 296 290 285 280 276 273 270 268 267 267 268 268 269 270 272 273 274 274 274 274 274 273 273 274 274 274 275 274 271 269 269 269 270 270 270 269 266 264 263 263 262 261 259 256 253 252 250 248 246 245 243 242 239 237
328 331 334 336 339 338 337 336 335 334 332 330 330 332 334 334 334 334 333 333 334 334 334 333 333 333 331 329 326 325 323 319 312 305 298 291 284 278 274 270 268 267 266 267 267 268 269 271 273 274 274 274 273 273 273 273 273 274 275 275 275 274 273 273 274 273 273 272 270 268 266 263 261 260 259 258 257 257 255 253 251 249 246 244 243 242 240 238
326 330 333 336 338 338 337 337 335 333 332 330 330 331 333 333 333 333 333 334 336 336 335 334 334 334 332 330 330 330 328 323 317 310 301 293 284 277 273 270 269 267 267 267 268 269 271 272 273 274 274 274 273 274 274 274 274 274 273 273 273 274 274 275 274 273 271 269 266 265 266 264 261 259 258 257 256 256 255 253 252 251 247 244 243 243 242 240
324 328 332 334 337 337 336 337 335 333 332 330 329 329 330 331 331 332 333 334 335 336 335 335 335 334 333 333 334 335 334 330 326 319 309 298 288 280 275 272 270 269 269 270 271 272 273 274 274 274 274 274 275 275 275 274 273 273 272 273 275 275 276 274 271 268 264 261 256 256 259 262 262 260 256 254 255 253 253 253 252 251 249 245 243 242 242 240
321 326 330 332 335 336 335 335 335 334 333 331 329 328 328 329 330 331 332 333 334 335 335 336 336 336 336 336 338 340 340 337 335 332 325 314 301 292 283 277 274 273 272 272 273 274 275 275 276 276 276 276 276 276 275 274 274 274 275 276 275 274 273 270 267 264 258 252 247 249 255 262 265 262 256 255 257 255 253 252 251 251 250 247 244 242 240 240
318 323 328 331 332 334 334 333 334 334 334 333 331 329 328 328 328 329 331 332 334 335 336 336 336 337 337 339 342 346 347 345 343 342 341 336 324 311 298 289 285 281 278 276 276 277 277 278 278 278 277 277 277 276 275 274 275 276 275 274 269 265 263 262 263 263 261 255 249 252 260 266 269 269 270 272 269 265 262 258 252 249 249 248 246 243 240 240
315 321 326 329 330 332 333 332 332 333 335 334 333 330 329 328 328 329 331 333 335 336 336 337 337 338 339 341 346 350 352 352 351 351 353 351 346 335 319 307 299 292 287 284 283 282 280 280 278 277 277 278 279 278 277 279 278 275 272 266 258 254 255 259 263 265 266 263 259 261 267 271 270 267 276 278 268 262 267 267 259 251 248 247 247 245 243 241
314 319 323 326 328 330 331 331 331 332 334 335 334 332 331 330 330 331 332 334 336 337 337 337 338 339 341 344 349 354 357 358 359 360 360 357 353 346 336 324 313 305 298 292 289 287 284 281 278 279 281 283 283 284 285 283 277 271 267 261 253 252 255 259 264 265 264 265 268 273 275 277 279 282 284 270 255 249 256 264 267 263 254 249 247 247 247 245
313 318 321 324 326 328 330 329 329 332 334 335 333 333 332 332 332 333 334 336 337 338 338 337 338 340 342 346 351 356 0 2 3 4 3 0 356 349 340 331 322 315 308 302 298 293 288 283 284 288 290 291 292 292 292 287 279 273 269 264 255 252 255 257 256 255 258 265 273 278 279 283 292 300 296 276 268 264 263 269 280 279 268 257 251 247 248 248
314 317 320 321 323 326 328 328 328 331 334 334 333 333 333 333 333 335 336 338 339 339 338 338 339 341 344 349 354 360 3 5 6 6 5 3 359 353 347 339 333 324 317 313 310 302 292 287 294 300 299 298 298 298 296 291 286 277 269 264 256 251 253 253 251 252 257 262 267 272 279 290 295 295 295 293 287 283 283 291 292 290 284 274 265 255 249 246
314 316 319 320 320 323 326 326 326 329 332 332 332 333 333 333 334 337 339 341 341 339 338 338 340 343 346 352 358 3 6 7 8 8 6 4 2 359 354 347 340 332 326 323 319 310 296 293 303 307 307 306 305 306 305 299 288 276 268 262 254 248 247 249 251 255 263 266 269 274 280 290 289 287 292 291 285 285 291 291 286 287 289 284 279 269 257 250
313 315 317 318 319 321 324 324 326 328 331 332 332 333 333 334 336 339 341 342 342 340 338 339 341 344 349 354 0 6 9 10 10 9 8 5 4 3 358 351 346 338 333 331 327 320 307 302 309 313 316 317 317 319 319 308 288 274 268 263 254 248 248 250 253 257 264 270 276 282 286 286 280 277 282 279 276 281 283 279 276 278 281 280 279 278 273 264
313 314 315 316 318 320 321 324 325 328 331 332 332 333 333 335 338 341 343 344 343 341 340 341 343 346 351 357 3 8 12 13 12 11 10 7 5 4 360 354 350 345 342 342 341 334 324 318 319 319 322 326 327 328 328 318 296 274 268 265 259 254 255 257 259 257 260 268 275 283 288 284 273 270 272 268 263 266 267 265 263 264 263 264 267 270 273 272
313 313 314 315 316 318 320 322 324 327 330 331 331 332 333 336 339 342 344 345 344 342 342 343 346 349 354 360 5 10 14 16 16 14 12 9 6 4 2 357 352 350 349 350 351 347 340 335 330 325 325 330 332 330 332 328 309 280 272 270 265 261 262 265 268 265 261 266 273 279 287 285 276 271 269 264 256 252 255 253 247 249 249 249 252 255 259 264
311 311 313 314 315 318 321 321 323 327 329 329 330 332 334 337 340 342 344 345 344 343 344 346 349 351 355 1 7 11 16 19 19 18 15 13 9 6 4 0 355 353 351 352 352 350 346 342 336 330 328 330 330 328 333 336 321 298 287 280 270 265 267 270 274 275 271 271 272 275 281 282 277 272 268 266 258 248 249 248 241 239 239 239 241 241 243 247
311 310 311 312 314 317 320 320 323 325 325 326 330 331 334 338 341 342 345 346 345 345 347 349 351 353 357 2 7 12 17 20 21 21 19 16 13 10 7 4 1 358 355 355 353 349 346 343 339 335 332 331 328 328 333 335 327 314 302 289 275 272 273 273 274 276 275 274 273 272 273 273 273 271 266 265 263 252 247 247 243 236 233 233 234 232 232 233
312 311 310 310 312 314 317 318 320 322 322 326 330 331 333 339 341 344 347 348 348 348 349 351 354 355 358 2 7 13 17 20 23 24 23 20 17 15 13 10 7 5 1 359 358 354 348 345 343 339 337 334 330 327 328 328 324 318 308 297 285 280 279 278 276 277 277 274 274 273 271 269 270 271 266 263 263 259 252 247 243 238 234 230 230 231 230 229
312 310 307 308 311 313 315 316 318 319 322 326 329 329 333 338 340 346 353 353 351 351 352 354 356 357 359 2 7 12 16 20 23 25 26 24 21 19 19 16 13 11 8 6 4 1 356 352 350 345 342 340 336 331 326 325 321 314 309 305 298 291 287 284 282 280 278 275 275 274 272 268 264 265 265 261 260 261 259 252 245 241 237 232 231 232 231 228
310 310 308 310 312 313 315 316 317 318 322 326 327 327 331 335 337 348 359 358 355 355 355 357 359 359 360 3 6 10 14 19 22 24 27 27 26 24 23 22 19 17 14 12 11 10 6 3 359 355 352 350 345 340 334 330 323 315 312 309 302 299 297 294 290 286 283 279 276 275 272 266 259 255 256 257 258 260 260 257 252 248 243 236 234 236 234 230
307 310 312 313 313 313 314 315 314 315 321 324 325 326 329 333 336 346 1 2 359 359 360 0 1 0 1 3 6 9 12 16 20 23 26 28 29 29 27 26 25 23 21 19 18 17 14 11 9 5 2 1 358 352 347 341 333 324 320 314 306 302 300 296 293 289 288 287 282 277 273 267 260 255 252 251 253 255 257 256 255 255 253 244 239 239 238 234
304 308 313 314 314 312 312 314 313 313 320 324 324 324 326 331 335 343 359 4 3 3 4 4 3 2 3 3 5 8 11 14 18 22 24 27 29 30 30 30 29 28 26 24 23 23 21 19 17 14 10 9 8 4 1 356 349 341 332 323 315 310 305 300 295 290 288 287 282 278 274 269 262 257 254 251 249 250 252 254 253 255 259 256 247 243 241 239
301 304 310 312 311 309 309 313 312 312 319 324 323 323 323 328 334 343 357 3 4 5 6 7 6 5 4 4 5 6 9 12 16 20 23 25 27 29 30 31 32 31 30 28 27 26 26 25 25 23 20 18 17 16 13 9 5 358 349 339 332 326 319 312 303 296 291 286 283 279 273 268 261 255 253 254 254 251 248 250 252 253 256 259 257 250 247 244
297 300 304 308 309 306 307 311 311 311 319 323 323 321 321 324 331 341 354 359 2 4 5 5 6 7 6 5 5 6 7 9 13 17 21 24 26 27 28 30 32 33 32 31 31 31 31 31 31 30 29 27 26 26 25 22 17 11 4 356 348 342 335 325 316 309 301 294 289 283 273 266 262 256 253 255 258 257 253 252 254 254 254 257 259 255 252 250
292 295 298 303 305 302 304 308 308 311 318 322 323 320 317 322 329 337 351 356 358 1 1 2 4 6 7 6 5 5 6 8 10 14 19 22 24 26 27 28 30 32 33 33 34 34 35 35 35 35 34 33 33 32 31 30 27 22 16 8 359 352 344 334 326 320 314 306 297 288 277 269 263 258 256 256 257 259 259 258 258 259 258 257 256 255 254 255
286 289 292 299 301 298 301 304 304 308 316 319 323 321 317 320 326 334 346 353 355 356 356 358 1 3 5 5 5 5 5 7 9 11 15 20 23 24 25 27 27 29 30 31 33 34 36 37 37 38 38 37 36 36 35 34 33 30 25 20 13 5 356 346 337 333 330 322 307 293 284 273 264 260 259 259 260 260 260 260 261 263 263 260 257 256 256 257
283 286 289 293 295 293 297 301 300 304 311 315 321 322 318 317 322 331 342 346 348 349 350 353 356 359 1 3 4 4 5 6 7 9 12 16 20 23 24 25 26 26 27 28 30 32 34 36 37 38 39 39 39 38 37 37 36 34 31 27 23 18 11 4 355 350 347 340 328 314 298 278 265 264 265 265 264 263 262 262 264 265 265 263 260 258 258 258
281 283 285 287 287 286 292 296 296 299 306 310 315 318 315 313 319 330 338 339 339 342 346 349 351 353 358 2 3 3 4 5 5 6 9 12 16 20 23 24 25 25 24 24 26 28 31 33 34 36 37 38 39 38 38 37 36 35 33 31 28 25 21 16 11 5 359 353 347 338 322 300 285 281 281 280 277 274 270 268 267 266 265 265 263 260 259 260
277 279 281 281 279 279 284 289 290 293 300 304 306 309 309 309 314 324 333 335 334 336 341 346 346 347 351 358 1 1 2 3 4 4 6 8 10 15 19 21 23 23 23 23 23 24 27 29 30 32 34 35 36 36 36 36 36 34 34 32 30 29 27 24 21 16 11 5 2 358 351 338 324 309 295 291 293 292 285 279 275 272 268 265 263 260 260 261
275 276 276 274 273 274 276 281 283 286 292 297 298 299 301 304 308 314 323 330 328 329 337 342 341 341 344 349 355 358 1 3 4 4 4 4 6 9 13 17 19 20 21 22 22 22 23 25 26 27 29 31 32 33 34 34 34 34 34 33 32 31 30 29 28 25 22 18 14 11 8 5 356 341 318 309 313 312 304 297 290 283 275 268 263 261 260 261
274 274 272 269 267 267 270 276 279 279 285 291 291 291 294 298 300 304 313 321 319 323 333 337 337 336 337 342 347 351 357 3 5 5 4 2 3 4 6 10 14 17 18 19 20 20 21 21 22 23 24 26 27 29 30 31 32 32 32 32 33 32 32 32 31 31 30 29 26 23 18 13 7 359 350 345 341 331 321 319 313 300 286 274 266 264 263 264
273 272 269 266 263 261 263 271 275 275 280 287 287 286 288 291 293 295 302 309 309 315 327 333 333 331 332 338 341 343 349 358 3 5 6 3 0 360 1 3 7 11 14 15 17 18 18 18 19 20 21 22 23 24 25 27 28 29 30 30 31 31 31 31 32 32 32 33 33 32 30 26 21 15 9 4 354 338 333 337 336 324 305 285 272 267 266 267
270 269 267 264 262 258 257 264 269 271 277 283 284 285 285 285 287 290 293 298 302 308 319 328 330 326 326 332 337 337 341 347 354 0 4 5 2 358 357 358 0 3 7 10 13 14 15 15 16 17 18 18 19 19 20 21 22 24 26 27 28 29 30 30 31 31 32 32 32 33 34 33 32 30 28 25 16 359 348 345 344 341 333 315 291 276 270 269
267 268 267 265 264 261 258 258 262 267 273 277 279 282 283 281 280 285 289 292 295 301 310 321 325 321 321 326 331 332 333 336 343 351 358 3 5 0 355 354 355 357 360 3 7 9 10 11 11 12 13 14 16 16 16 16 18 19 21 22 24 25 26 28 29 30 31 31 30 30 31 31 32 33 33 32 30 25 16 7 1 355 350 344 333 313 294 283
Height
10752 10750 10749 10748 10746 10744 10743 10741 10740 10738 10737 10735 10734 10732 10731 10729 10728 10727 10726 10724 10723 10723 10722 10720 10719 10718 10717 10715 10714 10713 10713 10712 10711 10710 10708 10707 10707 10706 10704 10703 10703 10702 10701 10701 10700 10699 10698 10697 10697 10696 10696 10697 10697 10696 10696 10696 10697 10698 10699 10699 10698 10696 10693 10692 10693 10696 10700 10703 10704 10703 10702 10703 10704 10704 10704 10704 10702 10697 10695 10695 10697 10702 10705 10708 10710 10712 10717 10722
10751 10749 10748 10746 10745 10743 10741 10740 10738 10737 10735 10733 10732 10730 10728 10727 10725 10724 10723 10722 10721 10720 10719 10717 10716 10715 10713 10712 10710 10710 10709 10708 10707 10706 10705 10704 10703 10702 10701 10700 10699 10698 10697 10696 10695 10695 10694 10693 10693 10692 10692 10692 10692 10692 10691 10691 10692 10692 10693 10693 10692 10689 10687 10686 10688 10694 10698 10699 10698 10699 10698 10698 10697 10698 10698 10698 10695 10691 10688 10687 10689 10693 10698 10704 10706 10709 10714 10719
10749 10748 10747 10745 10744 10742 10740 10738 10737 10735 10733 10731 10729 10727 10725 10724 10722 10721 10720 10719 10718 10716 10715 10714 10713 10711 10709 10708 10706 10705 10705 10704 10703 10702 10701 10700 10699 10698 10696 10695 10695 10694 10693 10692 10691 10690 10689 10689 10688 10687 10687 10687 10687 10686 10686 10686 10686 10686 10687 10687 10685 10683 10682 10681 10685 10691 10693 10692 10692 10693 10694 10692 10689 10690 10692 10691 10688 10685 10681 10679 10682 10685 10691 10700 10703 10705 10709 10713
10748 10746 10745 10744 10742 10740 10739 10737 10735 10733 10731 10729 10726 10724 10722 10721 10719 10718 10716 10715 10714 10713 10712 10711 10709 10708 10706 10704 10702 10701 10701 10700 10699 10698 10697 10696 10694 10693 10692 10691 10690 10689 10688 10687 10686 10685 10684 10684 10683 10683 10682 10682 10682 10680 10681 10681 10681 10681 10681 10680 10678 10677 10677 10676 10680 10685 10686 10686 10687 10687 10688 10686 10682 10682 10684 10683 10680 10678 10675 10673 10676 10679 10683 10692 10698 10700 10703 10706
10746 10745 10744 10742 10740 10739 10737 10735 10733 10731 10728 10726 10723 10721 10720 10718 10716 10715 10713 10712 10711 10709 10708 10707 10705 10704 10702 10700 10698 10697 10697 10696 10695 10694 10692 10691 10690 10688 10687 10686 10685 10684 10683 10682 10681 10680 10679 10678 10678 10678 10677 10677 10676 10674 10675 10676 10676 10676 10675 10674 10672 10671 10669 10669 10674 10677 10679 10681 10681 10681 10681 10678 10676 10675 10676 10676 10674 10671 10670 10668 10670 10673 10676 10683 10690 10694 10697 10699
10745 10743 10742 10740 10739 10737 10735 10733 10731 10728 10726 10723 10721 10719 10717 10715 10713 10712 10710 10709 10707 10706 10704 10703 10701 10700 10698 10695 10694 10693 10693 10691 10690 10689 10688 10686 10685 10684 10683 10681 10680 10679 10678 10677 10676 10675 10674 10674 10674 10672 10671 10670 10670 10669 10669 10670 10671 10670 10670 10668 10666 10663 10661 10663 10669 10671 10673 10675 10674 10673 10671 10670 10670 10669 10669 10670 10668 10665 10663 10663 10664 10668 10671 10675 10679 10684 10689 10692
10743 10742 10740 10739 10737 10735 10733 10731 10729 10726 10723 10721 10719 10717 10715 10713 10711 10709 10707 10705 10704 10702 10700 10699 10697 10696 10694 10692 10690 10689 10689 10687 10685 10684 10683 10681 10680 10679 10678 10676 10675 10674 10673 10672 10671 10670 10670 10670 10668 10666 10665 10664 10664 10663 10663 10664 10665 10665 10664 10662 10659 10656 10656 10659 10663 10664 10665 10665 10665 10663 10661 10662 10663 10663 10663 10663 10662 10660 10656 10654 10656 10660 10663 10667 10671 10675 10680 10685
10742 10740 10738 10737 10735 10733 10731 10729 10726 10724 10721 10719 10717 10715 10713 10710 10708 10706 10704 10702 10700 10698 10697 10695 10694 10692 10690 10688 10686 10685 10684 10682 10681 10680 10678 10677 10675 10674 10673 10672 10671 10669 10668 10667 10666 10666 10665 10664 10662 10660 10660 10659 10658 10657 10657 10658 10659 10659 10658 10657 10652 10649 10650 10654 10655 10655 10656 10656 10657 10656 10654 10655 10657 10658 10658 10657 10656 10653 10649 10647 10648 10652 10655 10660 10664 10667 10672 10678
10740 10738 10737 10735 10733 10731 10729 10727 10724 10721 10719 10717 10715 10712 10710 10708 10706 10704 10702 10699 10697 10695 10693 10691 10690 10688 10687 10685 10683 10681 10680 10679 10677 10675 10673 10672 10671 10669 10668 10667 10665 10664 10662 10661 10661 10660 10659 10658 10655 10654 10655 10654 10651 10651 10651 10651 10653 10653 10651 10651 10646 10642 10644 10647 10649 10649 10648 10648 10651 10651 10648 10647 10649 10652 10652 10649 10648 10646 10644 10643 10643 10645 10647 10652 10656 10660 10664 10669
10739 10737 10735 10733 10731 10729 10727 10724 10722 10719 10717 10715 10713 10710 10708 10706 10704 10702 10699 10697 10695 10693 10691 10689 10687 10686 10684 10682 10679 10677 10676 10675 10674 10671 10669 10667 10666 10664 10663 10662 10660 10658 10657 10656 10655 10653 10652 10652 10649 10648 10649 10648 10645 10645 10646 10645 10646 10645 10644 10643 10640 10638 10640 10642 10642 10642 10641 10640 10642 10643 10642 10640 10640 10644 10644 10641 10640 10641 10642 10641 10640 10639 10639 10641 10645 10648 10653 10658
10737 10735 10733 10731 10729 10727 10724 10722 10719 10717 10715 10713 10710 10708 10706 10704 10702 10699 10698 10695 10693 10691 10689 10687 10685 10683 10681 10679 10677 10674 10672 10671 10670 10668 10666 10663 10661 10659 10657 10656 10655 10653 10651 10650 10648 10646 10646 10646 10643 10641 10642 10641 10640 10639 10639 10639 10638 10638 10637 10637 10636 10636 10636 10635 10634 10633 10633 10631 10631 10633 10634 10634 10634 10635 10635 10634 10636 10638 10638 10635 10632 10632 10630 10629 10631 10634 10640 10648
10735 10733 10731 10729 10727 10725 10722 10719 10717 10714 10712 10710 10708 10706 10704 10702 10699 10697 10695 10693 10691 10689 10687 10685 10683 10681 10679 10677 10674 10671 10668 10666 10663 10662 10661 10659 10657 10654 10652 10651 10649 10647 10645 10643 10642 10641 10641 10639 10637 10635 10634 10635 10634 10631 10631 10632 10632 10630 10630 10631 10631 10631 10629 10627 10626 10625 10625 10623 10622 10623 10624 10627 10628 10629 10627 10627 10629 10628 10627 10625 10622 10623 10622 10620 10621 10623 10629 10638
10733 10731 10729 10727 10725 10723 10720 10717 10715 10712 10710 10708 10706 10704 10702 10700 10697 10695 10693 10691 10689 10687 10685 10682 10680 10678 10676 10673 10670 10667 10664 10662 10658 10655 10653 10652 10651 10648 10646 10645 10643 10641 10639 10637 10636 10635 10634 10633 10631 10629 10628 10629 10627 10624 10624 10626 10625 10623 10623 10624 10624 10624 10621 10619 10618 10617 10616 10615 10615 10615 10616 10619 10621 10622 10621 10620 10619 10615 10614 10615 10613 10615 10614 10613 10615 10618 10624 10632
10731 10729 10727 10725 10723 10720 10718 10715 10712 10710 10708 10706 10704 10702 10700 10698 10695 10693 10691 10689 10687 10684 10682 10680 10677 10674 10672 10669 10666 10663 10661 10658 10654 10650 10647 10644 10642 10640 10639 10637 10635 10634 10632 10631 10630 10629 10628 10626 10625 10623 10622 10621 10620 10618 10618 10618 10617 10616 10616 10617 10617 10615 10613 10612 10611 10611 10609 10607 10607 10607 10609 10611 10612 10613 10612 10612 10611 10607 10605 10605 10606 10608 10610 10612 10616 10621 10625 10628
10729 10727 10725 10722 10720 10718 10715 10712 10710 10707 10705 10703 10701 10699 10698 10695 10693 10691 10689 10687 10684 10682 10679 10677 10673 10670 10668 10665 10661 10658 10656 10653 10649 10645 10642 10637 10634 10632 10631 10630 10628 10626 10626 10624 10623 10622 10621 10620 10618 10617 10616 10615 10614 10613 10611 10611 10610 10609 10608 10609 10609 10606 10605 10605 10604 10604 10601 10598 10598 10599 10602 10604 10605 10605 10604 10604 10603 10601 10600 10600 10600 10603 10608 10613 10618 10622 10623 10622
10727 10725 10723 10720 10718 10715 10713 10710 10707 10705 10703 10701 10699 10697 10696 10693 10691 10689 10687 10684 10681 10679 10677 10674 10670 10666 10664 10660 10655 10652 10649 10646 10643 10639 10635 10630 10626 10624 10623 10622 10620 10619 10618 10617 10616 10615 10614 10613 10611 10610 10609 10609 10608 10607 10605 10604 10602 10601 10601 10601 10601 10599 10598 10598 10598 10596 10592 10590 10589 10591 10594 10598 10599 10597 10595 10595 10596 10596 10595 10596 10597 10599 10604 10608 10612 10615 10616 10615
10725 10723 10721 10719 10716 10713 10711 10708 10705 10703 10701 10699 10697 10695 10693 10691 10689 10687 10684 10682 10679 10676 10674 10671 10667 10663 10660 10654 10649 10646 10641 10638 10635 10630 10626 10621 10617 10615 10614 10614 10612 10611 10611 10610 10609 10608 10607 10606 10605 10604 10603 10603 10602 10601 10599 10597 10595 10594 10593 10594 10594 10592 10590 10590 10591 10588 10582 10581 10580 10582 10587 10591 10590 10587 10585 10586 10589 10589 10589 10589 10590 10591 10594 10596 10599 10603 10605 10607
10723 10721 10719 10717 10714 10711 10709 10706 10703 10701 10699 10697 10695 10693 10691 10689 10687 10685 10682 10679 10676 10674 10671 10667 10663 10660 10656 10650 10644 10640 10635 10629 10625 10620 10615 10611 10608 10606 10605 10605 10604 10604 10604 10603 10602 10602 10601 10600 10599 10598 10597 10597 10596 10594 10593 10591 10589 10587 10586 10586 10585 10585 10585 10585 10583 10578 10574 10574 10574 10576 10580 10582 10579 10577 10576 10579 10581 10581 10580 10579 10579 10580 10583 10585 10588 10591 10595 10598
10721 10719 10717 10714 10712 10709 10707 10704 10702 10699 10697 10695 10693 10691 10689 10687 10685 10682 10680 10677 10674 10671 10668 10664 10660 10656 10652 10647 10639 10633 10626 10620 10614 10609 10604 10601 10599 10597 10597 10597 10597 10597 10597 10596 10595 10595 10595 10594 10593 10593 10592 10591 10590 10588 10587 10586 10584 10580 10579 10578 10578 10579 10579 10577 10574 10571 10570 10570 10569 10570 10572 10572 10571 10570 10571 10572 10573 10572 10572 10571 10570 10572 10574 10576 10578 10581 10584 10587
10720 10717 10715 10712 10710 10707 10705 10702 10700 10698 10695 10693 10691 10689 10687 10685 10682 10680 10677 10675 10672 10668 10665 10661 10656 10651 10646 10641 10634 10626 10618 10610 10603 10599 10595 10592 10591 10590 10590 10589 10590 10590 10590 10590 10589 10589 10589 10588 10588 10587 10586 10585 10584 10582 10581 10580 10577 10575 10573 10571 10571 10572 10571 10569 10568 10567 10566 10566 10564 10563 10564 10564 10565 10566 10565 10564 10563 10563 10563 10562 10562 10563 10565 10567 10568 10569 10572 10576
10718 10716 10713 10711 10708 10706 10703 10701 10698 10696 10694 10691 10689 10687 10685 10682 10680 10677 10674 10671 10668 10665 10661 10657 10653 10647 10641 10635 10629 10621 10611 10603 10596 10590 10588 10586 10584 10584 10583 10583 10584 10584 10584 10584 10584 10584 10584 10583 10583 10582 10580 10578 10577 10576 10575 10574 10572 10571 10569 10567 10566 10565 10564 10563 10563 10562 10562 10561 10559 10557 10557 10559 10560 10561 10560 10558 10556 10556 10556 10555 10554 10555 10557 10559 10560 10561 10565 10570
10716 10714 10712 10709 10706 10704 10701 10699 10696 10694 10692 10689 10687 10685 10682 10679 10677 10674 10671 10668 10665 10661 10657 10652 10648 10643 10638 10631 10624 10615 10605 10597 10591 10586 10582 10581 10580 10579 10579 10579 10579 10580 10580 10579 10578 10579 10579 10578 10577 10576 10574 10572 10571 10570 10569 10568 10567 10566 10564 10562 10561 10559 10559 10558 10557 10557 10557 10556 10554 10552 10551 10553 10554 10556 10555 10553 10552 10552 10551 10549 10548 10549 10551 10553 10554 10556 10560 10565
10714 10712 10710 10707 10705 10702 10700 10697 10695 10692 10690 10687 10685 10683 10680 10678 10675 10671 10668 10664 10661 10658 10654 10649 10644 10639 10633 10626 10618 10608 10599 10591 10587 10582 10579 10577 10576 10576 10576 10575 10576 10576 10576 10575 10574 10574 10574 10573 10572 10571 10569 10566 10565 10565 10565 10563 10562 10561 10560 10558 10557 10555 10554 10554 10553 10553 10552 10552 10551 10549 10548 10548 10549 10551 10551 10549 10548 10548 10548 10546 10546 10545 10546 10548 10549 10552 10555 10559
10712 10710 10707 10705 10703 10701 10698 10696 10693 10691 10688 10686 10684 10682 10679 10676 10673 10670 10666 10662 10659 10655 10651 10646 10641 10636 10629 10623 10615 10605 10596 10589 10584 10580 10577 10575 10574 10574 10573 10573 10572 10573 10572 10571 10570 10570 10570 10568 10567 10566 10564 10562 10561 10561 10560 10559 10558 10557 10555 10554 10552 10550 10550 10549 10549 10549 10548 10548 10547 10546 10546 10546 10546 10548 10547 10546 10545 10545 10545 10545 10544 10543 10543 10543 10545 10547 10549 10551
10709 10707 10706 10703 10701 10699 10697 10694 10692 10689 10687 10684 10682 10680 10677 10674 10671 10667 10664 10660 10656 10652 10648 10643 10638 10633 10627 10620 10612 10603 10595 10588 10583 10579 10576 10574 10573 10572 10571 10570 10569 10569 10569 10568 10567 10567 10566 10564 10563 10561 10559 10558 10557 10557 10556 10555 10554 10552 10551 10550 10548 10547 10546 10546 10545 10544 10544 10544 10544 10544 10544 10544 10545 10545 10544 10543 10543 10542 10541 10541 10541 10541 10540 10541 10542 10543 10544 10545
10707 10705 10703 10702 10699 10696 10695 10692 10690 10687 10685 10682 10680 10677 10674 10672 10669 10665 10662 10658 10654 10650 10646 10641 10636 10630 10625 10618 10609 10601 10594 10588 10583 10579 10576 10574 10572 10571 10570 10568 10567 10567 10566 10565 10564 10563 10562 10561 10560 10558 10556 10555 10553 10552 10552 10551 10550 10548 10547 10546 10545 10544 10543 10542 10542 10541 10541 10542 10542 10542 10543 10543 10543 10543 10543 10542 10541 10540 10539 10538 10538 10538 10538 10539 10539 10539 10540 10541
10705 10702 10701 10699 10698 10695 10692 10690 10688 10685 10683 10680 10677 10675 10672 10669 10666 10663 10659 10656 10652 10648 10643 10638 10633 10628 10622 10615 10608 10601 10593 10587 10583 10579 10576 10573 10572 10570 10569 10567 10566 10565 10564 10562 10561 10560 10559 10558 10556 10554 10553 10551 10550 10548 10548 10547 10546 10544 10543 10543 10542 10541 10540 10540 10539 10539 10539 10539 10540 10540 10541 10541 10541 10542 10542 10541 10540 10539 10537 10536 10536 10536 10537 10537 10537 10537 10538 10538
10703 10700 10698 10697 10695 10693 10691 10688 10685 10683 10681 10678 10675 10672 10670 10667 10664 10661 10657 10653 10649 10646 10641 10636 10631 10626 10620 10614 10607 10600 10593 10587 10582 10579 10576 10573 10571 10569 10568 10566 10565 10563 10561 10560 10559 10557 10556 10555 10553 10551 10550 10548 10547 10545 10545 10544 10543 10541 10540 10540 10540 10539 10538 10538 10538 10537 10537 10537 10538 10538 10539 10539 10539 10539 10540 10539 10538 10537 10536 10536 10535 10535 10535 10535 10535 10536 10536 10536
10700 10698 10697 10694 10692 10691 10689 10686 10683 10681 10678 10676 10673 10670 10668 10665 10662 10658 10655 10651 10647 10643 10639 10634 10629 10624 10618 10612 10606 10598 10592 10586 10581 10578 10575 10572 10570 10568 10566 10564 10563 10561 10559 10558 10556 10555 10553 10552 10551 10549 10547 10546 10544 10543 10542 10541 10540 10539 10538 10538 10538 10537 10537 10537 10536 10536 10536 10536 10536 10537 10537 10537 10537 10537 10537 10537 10536 10535 10535 10535 10534 10534 10534 10534 10534 10534 10534 10534
10698 10696 10694 10693 10690 10688 10687 10684 10682 10679 10677 10674 10671 10668 10665 10662 10659 10656 10653 10649 10645 10640 10636 10632 10628 10623 10618 10612 10605 10598 10592 10586 10581 10577 10574 10571 10569 10567 10565 10562 10561 10559 10557 10555 10554 10552 10551 10550 10549 10548 10546 10544 10543 10541 10540 10539 10538 10537 10536 10535 10535 10536 10535 10535 10535 10535 10535 10535 10535 10535 10536 10536 10536 10536 10535 10535 10535 10534 10534 10534 10533 10533 10532 10532 10532 10532 10532 10532
10695 10693 10692 10691 10688 10685 10684 10682 10680 10677 10675 10671 10668 10666 10663 10661 10657 10654 10651 10648 10644 10639 10635 10631 10627 10622 10617 10612 10605 10599 10592 10585 10580 10577 10574 10571 10568 10565 10563 10561 10559 10557 10555 10554 10552 10550 10549 10548 10548 10546 10545 10543 10542 10540 10538 10537 10536 10535 10534 10533 10533 10533 10534 10534 10534 10534 10533 10533 10534 10534 10535 10535 10535 10534 10534 10534 10534 10533 10533 10532 10532 10532 10531 10531 10531 10530 10530 10531
10692 10691 10689 10688 10686 10684 10681 10679 10677 10675 10672 10669 10666 10664 10661 10658 10656 10653 10649 10646 10642 10638 10634 10630 10626 10621 10617 10611 10605 10599 10592 10586 10581 10577 10573 10570 10567 10565 10562 10560 10558 10556 10554 10552 10551 10549 10548 10547 10546 10545 10544 10542 10540 10539 10537 10535 10534 10533 10532 10531 10531 10531 10532 10532 10532 10532 10532 10532 10532 10533 10534 10534 10534 10534 10533 10533 10533 10532 10532 10531 10531 10531 10531 10530 10530 10530 10529 10529
10689 10688 10687 10685 10683 10682 10680 10677 10676 10673 10670 10668 10665 10662 10659 10656 10654 10651 10648 10644 10640 10637 10633 10629 10625 10620 10616 10611 10605 10600 10594 10588 10582 10577 10573 10570 10567 10564 10562 10559 10557 10555 10553 10551 10550 10548 10547 10546 10545 10543 10542 10540 10539 10537 10536 10534 10532 10531 10530 10529 10529 10529 10529 10529 10530 10530 10530 10530 10530 10531 10532 10533 10533 10532 10532 10531 10531 10531 10531 10531 10531 10530 10530 10529 10529 10529 10528 10528
10687 10685 10684 10683 10680 10679 10677 10675 10674 10671 10669 10667 10664 10661 10658 10655 10652 10649 10646 10643 10639 10635 10631 10627 10623 10620 10616 10611 10606 10601 10595 10589 10584 10578 10574 10570 10567 10564 10561 10559 10556 10554 10552 10550 10549 10547 10546 10545 10543 10542 10540 10538 10537 10535 10534 10532 10531 10529 10528 10528 10528 10527 10527 10527 10527 10527 10528 10528 10528 10529 10530 10531 10531 10531 10530 10529 10529 10530 10529 10529 10529 10529 10528 10527 10527 10527 10527 10527
10685 10682 10681 10681 10678 10676 10675 10673 10671 10670 10668 10665 10663 10660 10657 10654 10651 10648 10645 10641 10638 10634 10630 10626 10623 10619 10615 10611 10607 10602 10596 10590 10585 10580 10575 10571 10568 10564 10561 10559 10556 10553 10551 10549 10547 10546 10544 10542 10541 10540 10538 10537 10535 10533 10532 10531 10529 10528 10527 10527 10526 10525 10524 10525 10525 10525 10525 10525 10525 10526 10527 10528 10529 10529 10528 10527 10526 10526 10526 10526 10526 10526 10526 10525 10525 10525 10525 10525
10682 10680 10678 10677 10676 10675 10673 10671 10669 10668 10666 10663 10661 10658 10656 10653 10650 10647 10644 10640 10637 10633 10629 10626 10622 10619 10615 10611 10607 10602 10597 10592 10587 10582 10577 10572 10569 10565 10562 10559 10556 10553 10550 10548 10546 10544 10542 10541 10539 10538 10536 10535 10533 10532 10530 10529 10528 10526 10525 10525 10524 10523 10522 10522 10522 10522 10522 10522 10522 10523 10524 10525 10526 10527 10526 10524 10523 10523 10523 10524 10524 10523 10523 10523 10523 10523 10523 10522
10679 10678 10675 10674 10673 10672 10670 10669 10667 10666 10664 10661 10659 10657 10655 10653 10650 10647 10643 10640 10636 10633 10629 10625 10621 10618 10615 10611 10607 10603 10599 10594 10589 10584 10579 10574 10570 10566 10563 10559 10556 10553 10550 10547 10546 10544 10542 10540 10538 10536 10535 10533 10532 10530 10529 10528 10526 10525 10524 10523 10522 10522 10521 10520 10520 10519 10519 10519 10519 10519 10520 10521 10522 10523 10523 10522 10520 10519 10520 10521 10521 10520 10520 10520 10520 10520 10520 10520
10676 10675 10673 10671 10669 10668 10667 10666 10664 10663 10661 10659 10657 10656 10654 10652 10649 10646 10643 10639 10636 10632 10628 10624 10621 10617 10614 10611 10607 10604 10600 10596 10591 10587 10582 10577 10572 10567 10563 10560 10556 10553 10550 10547 10545 10543 10541 10539 10537 10535 10534 10532 10531 10529 10527 10526 10525 10523 10523 10522 10521 10520 10520 10519 10517 10517 10516 10516 10516 10516 10516 10517 10518 10518 10519 10518 10516 10516 10517 10518 10517 10516 10517 10518 10517 10517 10517 10517
10673 10672 10671 10669 10667 10665 10664 10663 10661 10660 10659 10658 10655 10654 10652 10650 10648 10645 10642 10639 10635 10632 10628 10624 10621 10617 10614 10610 10607 10604 10600 10596 10592 10588 10584 10579 10574 10569 10565 10561 10557 10554 10551 10548 10546 10543 10541 10539 10537 10535 10533 10531 10530 10528 10527 10525 10524 10523 10522 10521 10520 10519 10518 10517 10515 10514 10513 10513 10513 10512 10512 10513 10513 10513 10514 10514 10512 10512 10514 10514 10513 10513 10514 10515 10515 10514 10513 10514
10669 10669 10668 10666 10665 10663 10662 10661 10660 10658 10657 10656 10654 10652 10650 10649 10647 10644 10642 10638 10635 10631 10628 10624 10621 10617 10613 10610 10607 10604 10601 10597 10593 10589 10585 10581 10576 10572 10568 10563 10559 10555 10552 10549 10546 10543 10541 10539 10537 10534 10532 10530 10529 10528 10526 10525 10524 10523 10521 10520 10519 10517 10516 10515 10513 10511 10510 10509 10509 10509 10509 10508 10509 10509 10508 10507 10507 10509 10511 10510 10509 10509 10511 10512 10512 10511 10510 10510
10665 10665 10665 10664 10662 10660 10659 10659 10658 10656 10655 10654 10652 10650 10649 10647 10645 10643 10641 10638 10635 10631 10628 10624 10621 10617 10614 10610 10607 10605 10601 10598 10594 10590 10586 10582 10578 10574 10570 10566 10561 10557 10553 10550 10547 10544 10542 10539 10537 10535 10532 10530 10529 10527 10526 10525 10523 10522 10520 10519 10517 10516 10514 10512 10510 10508 10507 10505 10504 10505 10505 10504 10504 10504 10503 10502 10503 10506 10506 10505 10505 10506 10507 10508 10509 10508 10507 10507
10662 10661 10661 10661 10659 10657 10656 10656 10655 10654 10653 10652 10650 10648 10647 10645 10644 10642 10640 10637 10634 10631 10628 10625 10621 10618 10614 10611 10608 10605 10602 10598 10595 10591 10587 10583 10580 10576 10572 10568 10563 10559 10556 10553 10549 10546 10543 10541 10538 10536 10534 10531 10529 10527 10525 10524 10522 10520 10519 10517 10515 10513 10511 10509 10506 10505 10503 10501 10500 10500 10500 10499 10499 10500 10499 10498 10500 10501 10502 10502 10502 10502 10504 10505 10506 10505 10504 10504
10658 10658 10658 10657 10656 10655 10653 10652 10652 10651 10650 10649 10648 10646 10645 10643 10642 10640 10638 10636 10634 10631 10628 10625 10621 10618 10615 10611 10608 10605 10602 10599 10595 10592 10588 10585 10581 10577 10574 10570 10566 10562 10559 10556 10552 10549 10545 10542 10540 10537 10535 10532 10530 10527 10525 10523 10521 10520 10518 10516 10513 10511 10508 10506 10503 10501 10499 10498 10497 10496 10495 10496 10496 10496 10495 10496 10496 10498 10499 10499 10498 10498 10501 10502 10502 10501 10501 10501
10654 10654 10654 10654 10653 10651 10651 10650 10649 10649 10648 10646 10645 10644 10643 10641 10640 10638 10636 10634 10632 10630 10627 10624 10621 10618 10615 10611 10608 10605 10602 10599 10596 10593 10589 10586 10582 10579 10575 10572 10568 10564 10562 10559 10555 10552 10548 10545 10542 10539 10536 10534 10531 10529 10527 10525 10523 10521 10518 10516 10513 10510 10507 10504 10501 10498 10496 10495 10493 10492 10492 10493 10493 10492 10493 10493 10494 10495 10495 10494 10493 10495 10497 10498 10497 10497 10498 10498
10650 10650 10651 10651 10649 10648 10648 10647 10646 10646 10646 10644 10643 10642 10640 10639 10638 10636 10635 10633 10631 10629 10626 10623 10621 10618 10615 10612 10608 10605 10602 10599 10596 10593 10590 10587 10584 10580 10577 10573 10570 10567 10564 10561 10558 10554 10551 10548 10545 10542 10539 10536 10534 10531 10529 10526 10524 10522 10519 10517 10514 10510 10507 10504 10500 10497 10495 10492 10491 10490 10490 10490 10490 10490 10491 10492 10492 10492 10492 10490 10490 10491 10493 10493 10494 10494 10494 10495
10646 10646 10647 10647 10646 10644 10644 10644 10643 10642 10642 10642 10640 10639 10638 10637 10636 10634 10633 10631 10629 10628 10625 10623 10620 10618 10615 10612 10609 10606 10602 10600 10597 10594 10591 10588 10585 10582 10578 10575 10572 10569 10566 10563 10560 10557 10554 10551 10548 10545 10542 10539 10536 10533 10530 10527 10525 10522 10520 10517 10514 10511 10507 10504 10500 10497 10495 10492 10490 10489 10488 10488 10488 10489 10489 10490 10490 10490 10490 10488 10487 10488 10489 10489 10490 10491 10491 10491
10641 10642 10643 10643 10642 10641 10641 10641 10640 10639 10639 10639 10638 10637 10636 10635 10634 10632 10631 10629 10628 10626 10624 10622 10620 10617 10615 10613 10610 10606 10603 10600 10597 10594 10592 10589 10586 10582 10579 10576 10573 10571 10568 10565 10562 10559 10556 10553 10550 10547 10544 10541 10538 10535 10532 10529 10526 10523 10521 10518 10515 10512 10509 10505 10502 10498 10495 10492 10490 10489 10488 10488 10488 10488 10488 10488 10488 10488 10487 10486 10485 10485 10485 10486 10487 10487 10487 10488
10636 10637 10638 10638 10637 10637 10638 10638 10637 10637 10636 10636 10635 10634 10633 10632 10631 10630 10629 10627 10626 10625 10623 10621 10619 10617 10615 10612 10610 10607 10604 10601 10598 10595 10592 10589 10586 10583 10580 10577 10574 10572 10570 10567 10564 10561 10558 10555 10552 10549 10547 10544 10540 10537 10535 10532 10529 10526 10523 10521 10518 10515 10511 10508 10504 10500 10497 10494 10491 10490 10489 10488 10488 10488 10487 10487 10487 10486 10484 10483 10482 10482 10482 10482 10483 10484 10484 10484
10631 10631 10632 10633 10633 10633 10633 10634 10634 10633 10633 10633 10632 10632 10631 10630 10629 10627 10626 10625 10624 10623 10621 10619 10617 10615 10613 10611 10609 10607 10604 10601 10598 10595 10592 10589 10586 10584 10581 10578 10576 10573 10570 10568 10565 10563 10560 10557 10554 10551 10549 10546 10543 10540 10537 10535 10532 10529 10526 10523 10520 10517 10514 10510 10507 10503 10500 10497 10494 10491 10489 10488 10488 10487 10487 10486 10485 10484 10482 10481 10481 10480 10479 10479 10480 10480 10480 10481
10626 10626 10626 10627 10628 10629 10629 10630 10630 10629 10630 10629 10629 10628 10628 10627 10626 10625 10623 10622 10621 10620 10619 10617 10615 10614 10612 10610 10608 10606 10603 10601 10598 10595 10592 10589 10587 10584 10582 10579 10576 10574 10571 10568 10566 10563 10561 10558 10556 10553 10550 10547 10545 10542 10539 10537 10534 10531 10528 10525 10522 10519 10516 10513 10509 10506 10503 10500 10497 10494 10492 10490 10489 10487 10487 10485 10484 10482 10481 10480 10479 10478 10477 10477 10477 10477 10477 10477
10621 10621 10621 10621 10623 10624 10625 10626 10625 10625 10625 10626 10625 10625 10624 10624 10624 10622 10620 10619 10619 10618 10617 10615 10614 10612 10610 10608 10607 10604 10602 10600 10598 10595 10592 10589 10587 10584 10582 10579 10576 10574 10571 10569 10566 10564 10562 10559 10557 10554 10552 10549 10546 10543 10541 10538 10536 10533 10530 10527 10524 10522 10519 10515 10512 10509 10505 10502 10500 10497 10495 10493 10491 10489 10487 10485 10484 10482 10480 10479 10478 10477 10476 10475 10475 10475 10475 10475
10616 10616 10615 10616 10618 10619 10620 10621 10621 10621 10621 10622 10621 10621 10620 10620 10620 10619 10618 10616 10616 10615 10614 10613 10612 10610 10609 10607 10605 10603 10601 10599 10597 10595 10592 10589 10586 10583 10581 10579 10576 10574 10571 10569 10566 10564 10562 10559 10557 10554 10552 10550 10547 10545 10542 10539 10537 10534 10531 10529 10526 10523 10521 10518 10515 10512 10508 10505 10502 10499 10497 10495 10493 10491 10489 10487 10485 10483 10481 10479 10478 10476 10474 10474 10473 10473 10473 10472